Location: Jangalapalle
(16.8036°N, 80.6370°E)
Time: 10:34:12
(UTC+00:00)

OAO 3 Copernicus - Pass Details

Date: 05 August 2024
Orbit: 691 x 700 km, 35.0° (Epoch: 13 September)

Event Time Altitude Azimuth Distance (km) Brightness Sun altitude
Exits shadow 23:23:16 19° 232° (SW) 1,637 5.6 -13.4°
Maximum altitude 23:26:56 80° 147° (SSE) 701 4.3 -12.6°
Drops below altitude 10° 23:31:56 10° 60° (ENE) 2,133 8.3 -11.5°
Sets 23:34:20 0° 59° (ENE) 3,049 9.6 -10.9°
